N858PC LLHZ-LLHA

Flight info

Callsign N858PC
Flight time 0h 17m
Altitude 1600
Route CVFR
Aircraft BE36/L-VD/A

Departure

Time 2026-04-25 19:44
Airport Herzliya Airport (LLHZ)

Arrival

Time 2026-04-25 20:02
Airport Uri Michaeli Haifa International Airport (LLHA)
Time Latitude Longitude Altitude Speed Heading
2026-04-25 19:35 32.17957 34.83883 119 ft 0 kts 200°
2026-04-25 19:43 32.17946 34.83880 121 ft 4 kts 176°
2026-04-25 19:43 32.17936 34.83880 121 ft 6 kts 187°
2026-04-25 19:43 32.17915 34.83849 121 ft 9 kts 279°
2026-04-25 19:43 32.17942 34.83756 119 ft 20 kts 288°
2026-04-25 19:44 32.18096 34.83226 128 ft 103 kts 287°
2026-04-25 19:44 32.18474 34.82579 505 ft 93 kts
2026-04-25 19:44 32.19157 34.82888 668 ft 114 kts 14°
2026-04-25 19:44 32.19923 34.83152 877 ft 115 kts 15°
2026-04-25 19:45 32.20710 34.83345 1090 ft 116 kts
2026-04-25 19:45 32.21547 34.83274 1189 ft 124 kts 340°
2026-04-25 19:45 32.22215 34.82591 1130 ft 140 kts 298°
2026-04-25 19:45 32.22849 34.81721 1093 ft 137 kts 349°
2026-04-25 19:46 32.23754 34.81887 1326 ft 137 kts 13°
2026-04-25 19:46 32.24669 34.82081 1522 ft 132 kts
2026-04-25 19:46 32.25577 34.82241 1692 ft 131 kts
2026-04-25 19:46 32.26172 34.82371 1791 ft 132 kts
2026-04-25 19:47 32.27384 34.82615 1873 ft 131 kts
2026-04-25 19:47 32.27987 34.82708 1844 ft 132 kts
2026-04-25 19:47 32.28905 34.82840 1769 ft 134 kts 12°
2026-04-25 19:47 32.29824 34.83095 1642 ft 136 kts 11°
2026-04-25 19:48 32.30803 34.83319 1709 ft 156 kts
2026-04-25 19:48 32.31926 34.83562 1853 ft 172 kts 11°
2026-04-25 19:48 32.33150 34.83864 1832 ft 187 kts 11°
2026-04-25 19:48 32.34467 34.84162 1684 ft 199 kts
2026-04-25 19:49 32.35837 34.84389 1675 ft 197 kts
2026-04-25 19:49 32.36735 34.84575 1649 ft 199 kts 10°
2026-04-25 19:49 32.38534 34.85077 1593 ft 200 kts 17°
2026-04-25 19:49 32.39863 34.85509 1607 ft 197 kts 11°
2026-04-25 19:50 32.42431 34.86123 1639 ft 176 kts 11°
2026-04-25 19:50 32.43640 34.86402 1599 ft 178 kts
2026-04-25 19:50 32.44860 34.86673 1575 ft 178 kts 10°
2026-04-25 19:51 32.46085 34.86951 1523 ft 180 kts 11°
2026-04-25 19:51 32.47291 34.87222 1515 ft 178 kts 10°
2026-04-25 19:51 32.48516 34.87469 1480 ft 179 kts
2026-04-25 19:51 32.49745 34.87665 1459 ft 178 kts
2026-04-25 19:52 32.50964 34.87805 1508 ft 176 kts
2026-04-25 19:52 32.52184 34.87932 1510 ft 176 kts
2026-04-25 19:52 32.53395 34.88153 1502 ft 176 kts 10°
2026-04-25 19:52 32.54595 34.88429 1505 ft 176 kts
2026-04-25 19:53 32.55810 34.88663 1491 ft 176 kts 11°
2026-04-25 19:53 32.57001 34.89012 1505 ft 176 kts 13°
2026-04-25 19:53 32.58177 34.89334 1578 ft 173 kts 12°
2026-04-25 19:53 32.59381 34.89630 1490 ft 179 kts 11°
2026-04-25 19:54 32.60579 34.89949 1552 ft 175 kts 13°
2026-04-25 19:54 32.61770 34.90268 1567 ft 175 kts 11°
2026-04-25 19:54 32.62944 34.90514 1584 ft 176 kts
2026-04-25 19:54 32.63764 34.90710 1537 ft 178 kts 11°
2026-04-25 19:55 32.65375 34.91070 1520 ft 177 kts
2026-04-25 19:55 32.66603 34.91266 1540 ft 183 kts
2026-04-25 19:55 32.67885 34.91539 1552 ft 190 kts 11°
2026-04-25 19:55 32.69178 34.91873 1665 ft 188 kts 16°
2026-04-25 19:56 32.70451 34.92281 1711 ft 191 kts 12°
2026-04-25 19:56 32.71747 34.92517 1691 ft 174 kts
2026-04-25 19:56 32.72929 34.92704 1587 ft 173 kts
2026-04-25 19:56 32.74113 34.92970 1532 ft 174 kts 11°
2026-04-25 19:57 32.75333 34.93232 1357 ft 180 kts
2026-04-25 19:57 32.76545 34.93456 1359 ft 178 kts
2026-04-25 19:57 32.77761 34.93710 1347 ft 176 kts
2026-04-25 19:57 32.78969 34.93943 1366 ft 174 kts
2026-04-25 19:58 32.80161 34.94147 1378 ft 174 kts
2026-04-25 19:58 32.81305 34.94284 1456 ft 156 kts
2026-04-25 19:58 32.82402 34.94388 1295 ft 161 kts
2026-04-25 19:58 32.83441 34.94765 1382 ft 152 kts 30°
2026-04-25 19:59 32.84107 34.95655 1519 ft 145 kts 66°
2026-04-25 19:59 32.84334 34.96802 1375 ft 140 kts 81°
2026-04-25 19:59 32.84485 34.97906 1302 ft 128 kts 82°
2026-04-25 19:59 32.84547 34.98946 1192 ft 128 kts 91°
2026-04-25 20:00 32.84480 35.00011 1098 ft 129 kts 96°
2026-04-25 20:00 32.84457 35.00262 1077 ft 129 kts 96°
2026-04-25 20:00 32.84301 35.01687 901 ft 124 kts 101°
2026-04-25 20:00 32.84077 35.02569 738 ft 96 kts 122°
2026-04-25 20:01 32.83042 35.03519 410 ft 95 kts 156°
2026-04-25 20:01 32.82449 35.03762 259 ft 86 kts 162°
2026-04-25 20:01 32.81932 35.03980 138 ft 78 kts 160°
2026-04-25 20:02 32.81432 35.04194 41 ft 72 kts 160°
2026-04-25 20:02 32.81026 35.04371 21 ft 50 kts 160°
2026-04-25 20:02 32.80902 35.04418 22 ft 7 kts 78°
2026-04-25 20:02 32.80992 35.04386 22 ft 22 kts 339°
2026-04-25 20:03 32.81168 35.04308 21 ft 28 kts 340°
2026-04-25 20:03 32.81343 35.04232 26 ft 26 kts 343°
2026-04-25 20:03 32.81450 35.04192 27 ft 12 kts 341°
2026-04-25 20:03 32.81492 35.04231 25 ft 10 kts 73°
2026-04-25 20:04 32.81521 35.04326 22 ft 10 kts 69°
2026-04-25 20:04 32.81532 35.04373 21 ft 1 kts 64°
2026-04-25 20:04 32.81545 35.04365 21 ft 5 kts 269°
2026-04-25 20:04 32.81544 35.04364 21 ft 0 kts 253°